Вернуться в каталог

STARLINK-31238

АктивенСвязьVLEO
NORAD 58853·PAYLOAD·🇺🇸 United States

Запущен Jan 29, 2024 с Cape Canaveral Space Force Station

Loading…

Ближайшие Пролёты (ближайшие 24 часа)

TLE

СвежийSource: CelesTrak SupGP

Эпоха: Sep 15, 2026, 02:08 UTC

1 58853C 24019A   26258.08937500 -.00007878  00000+0 -28534-3 0  2584
2 58853  42.9993 259.0718 0001134 262.3915   8.2311 15.27582490    15

Отслеживайте STARLINK-31238 в реальном времени с AllMySat

Download on the App Store